| time (UTC) | temp C | wind direction | speed KPH | gust KPH | rain 1hr cm | rain 24hr cm | rain mn cm | humidity % | barometer mb |
| 20260509113617 | 8 | 107 | 0.0 | 3.2 | 0.13 | 0.56 | 0.20 | 95 | 1009.3 |
| 20260509112617 | 8 | 200 | 0.0 | 1.6 | 0.15 | 0.53 | 0.15 | 95 | 1009.4 |
| 20260509111618 | 8 | 189 | 3.2 | 4.8 | 0.13 | 0.51 | 0.15 | 95 | 1009.4 |
| 20260509110617 | 8 | 166 | 4.8 | 6.4 | 0.13 | 0.51 | 0.13 | 94 | 1009.3 |
| 20260509105639 | 8 | 190 | 3.2 | 6.4 | 0.10 | 0.48 | 0.10 | 94 | 1009.2 |
| 20260509104636 | 8 | 186 | 3.2 | 4.8 | 0.10 | 0.46 | 0.10 | 94 | 1009.0 |
| 20260509103616 | 8 | 179 | 3.2 | 4.8 | 0.08 | 0.43 | 0.08 | 93 | 1009.0 |
| 20260509102616 | 7 | 184 | 3.2 | 3.2 | 0.03 | 0.38 | 0.03 | 93 | 1008.9 |
| 20260509101615 | 7 | 102 | 0.0 | 1.6 | 0.00 | 0.38 | 0.00 | 92 | 1008.7 |
| 20260509100616 | 7 | 144 | 1.6 | 3.2 | 0.00 | 0.36 | 0.00 | 91 | 1008.7 |
| 20260509095616 | 7 | 184 | 0.0 | 1.6 | 0.00 | 0.36 | 0.00 | 90 | 1008.8 |
| 20260509094637 | 7 | 194 | 1.6 | 3.2 | 0.00 | 0.36 | 0.00 | 90 | 1008.9 |
| 20260509093616 | 7 | 196 | 1.6 | 3.2 | 0.00 | 0.36 | 0.00 | 89 | 1008.9 |
| 20260509092616 | 7 | 0.0 | 0.0 | 0.00 | 0.36 | 0.00 | 89 | 1008.9 | |
| 20260509091617 | 7 | 0.0 | 0.0 | 0.00 | 0.36 | 0.00 | 88 | 1008.8 | |
| 20260509090617 | 7 | 201 | 0.0 | 1.6 | 0.00 | 0.36 | 0.00 | 88 | 1008.9 |
| 20260509085738 | 7 | 195 | 1.6 | 3.2 | 0.00 | 0.36 | 0.00 | 87 | 1008.8 |
| 20260509084618 | 7 | 213 | 3.2 | 6.4 | 0.00 | 0.36 | 0.00 | 87 | 1008.8 |
| 20260509083617 | 6 | 101 | 0.0 | 1.6 | 0.00 | 0.36 | 0.00 | 86 | 1008.8 |
| 20260509082618 | 6 | 202 | 0.0 | 1.6 | 0.00 | 0.36 | 0.00 | 86 | 1009.1 |
| 20260509081618 | 6 | 248 | 3.2 | 3.2 | 0.00 | 0.36 | 0.00 | 85 | 1009.2 |
| 20260509080618 | 6 | 231 | 0.0 | 1.6 | 0.00 | 0.36 | 0.00 | 84 | 1009.1 |
| 20260509075616 | 6 | 237 | 3.2 | 4.8 | 0.00 | 0.36 | 0.00 | 83 | 1009.4 |
| 20260509074616 | 7 | 224 | 1.6 | 3.2 | 0.00 | 0.36 | 0.00 | 82 | 1009.4 |
| 20260509073616 | 7 | 194 | 1.6 | 4.8 | 0.00 | 0.36 | 0.00 | 80 | 1009.5 |
| 20260509072616 | 7 | 207 | 0.0 | 0.0 | 0.00 | 0.36 | 0.00 | 78 | 1009.6 |
| 20260509071637 | 8 | 99 | 3.2 | 3.2 | 0.00 | 0.36 | 0.00 | 77 | 1009.5 |
| 20260509070616 | 8 | 233 | 6.4 | 8.0 | 0.00 | 0.36 | 0.00 | 75 | 1009.6 |
| 20260509065616 | 8 | 222 | 3.2 | 4.8 | 0.00 | 0.36 | 0.00 | 74 | 1009.6 |
| 20260509064617 | 8 | 243 | 8.0 | 9.7 | 0.00 | 0.36 | 0.00 | 74 | 1009.7 |
| 20260509063617 | 7 | 228 | 6.4 | 8.0 | 0.00 | 0.36 | 0.00 | 75 | 1009.7 |
| 20260509062637 | 7 | 207 | 3.2 | 4.8 | 0.00 | 0.36 | 0.00 | 73 | 1009.9 |
| 20260509061617 | 8 | 215 | 3.2 | 4.8 | 0.00 | 0.36 | 0.00 | 70 | 1010.1 |
| 20260509060617 | 8 | 245 | 3.2 | 4.8 | 0.00 | 0.36 | 0.00 | 68 | 1010.1 |
| 20260509055617 | 8 | 260 | 3.2 | 4.8 | 0.00 | 0.36 | 0.00 | 68 | 1010.2 |
| 20260509054617 | 8 | 226 | 1.6 | 3.2 | 0.00 | 0.36 | 0.00 | 67 | 1010.2 |
| 20260509053638 | 8 | 242 | 3.2 | 4.8 | 0.00 | 0.36 | 0.00 | 66 | 1010.4 |
| 20260509052618 | 8 | 242 | 6.4 | 8.0 | 0.00 | 0.36 | 0.00 | 66 | 1010.6 |
| 20260509051638 | 8 | 254 | 4.8 | 4.8 | 0.00 | 0.36 | 0.00 | 67 | 1010.5 |
| 20260509050618 | 8 | 276 | 4.8 | 4.8 | 0.00 | 0.41 | 0.00 | 66 | 1010.5 |
| 20260509045618 | 7 | 273 | 4.8 | 4.8 | 0.00 | 0.41 | 0.00 | 66 | 1010.6 |
| 20260509044636 | 7 | 269 | 4.8 | 6.4 | 0.00 | 0.41 | 0.00 | 67 | 1010.5 |
| 20260509043616 | 7 | 268 | 4.8 | 6.4 | 0.00 | 0.41 | 0.00 | 68 | 1010.6 |
| 20260509042616 | 7 | 261 | 6.4 | 6.4 | 0.00 | 0.41 | 0.00 | 70 | 1010.7 |
| 20260509041616 | 7 | 262 | 6.4 | 8.0 | 0.00 | 0.41 | 0.00 | 70 | 1010.7 |
| 20260509040617 | 7 | 263 | 6.4 | 6.4 | 0.00 | 0.41 | 0.00 | 70 | 1010.7 |
| 20260509035616 | 6 | 265 | 6.4 | 8.0 | 0.00 | 0.41 | 0.41 | 72 | 1010.6 |
| 20260509034616 | 6 | 264 | 6.4 | 8.0 | 0.00 | 0.41 | 0.41 | 72 | 1010.8 |
| 20260509033617 | 6 | 261 | 6.4 | 8.0 | 0.00 | 0.41 | 0.41 | 72 | 1010.9 |
| 20260509032617 | 6 | 262 | 4.8 | 6.4 | 0.00 | 0.41 | 0.41 | 75 | 1011.0 |
| 20260509031618 | 6 | 263 | 6.4 | 6.4 | 0.00 | 0.41 | 0.41 | 80 | 1011.1 |
| 20260509030637 | 6 | 281 | 4.8 | 4.8 | 0.00 | 0.41 | 0.41 | 78 | 1011.2 |
| 20260509025638 | 6 | 267 | 4.8 | 4.8 | 0.00 | 0.41 | 0.41 | 75 | 1011.1 |
| 20260509024618 | 7 | 271 | 3.2 | 4.8 | 0.00 | 0.41 | 0.41 | 72 | 1011.0 |
| 20260509023618 | 6 | 283 | 4.8 | 4.8 | 0.00 | 0.41 | 0.41 | 75 | 1011.1 |
| 20260509022619 | 7 | 284 | 4.8 | 4.8 | 0.00 | 0.41 | 0.41 | 72 | 1011.2 |
| 20260509021618 | 6 | 279 | 3.2 | 4.8 | 0.00 | 0.41 | 0.41 | 75 | 1011.3 |
| 20260509020618 | 6 | 286 | 4.8 | 4.8 | 0.00 | 0.41 | 0.41 | 77 | 1011.4 |
| 20260509015616 | 6 | 265 | 4.8 | 6.4 | 0.00 | 0.41 | 0.41 | 77 | 1011.3 |
| 20260509014615 | 6 | 279 | 4.8 | 4.8 | 0.00 | 0.41 | 0.41 | 76 | 1011.4 |
| 20260509013616 | 6 | 280 | 3.2 | 4.8 | 0.00 | 0.41 | 0.41 | 76 | 1011.2 |
| 20260509012616 | 6 | 270 | 4.8 | 4.8 | 0.00 | 0.41 | 0.41 | 78 | 1011.2 |
| 20260509011616 | 6 | 282 | 3.2 | 4.8 | 0.00 | 0.41 | 0.41 | 75 | 1011.1 |
| 20260509010616 | 6 | 279 | 3.2 | 4.8 | 0.00 | 0.41 | 0.41 | 77 | 1010.9 |
| 20260509005616 | 7 | 270 | 3.2 | 4.8 | 0.00 | 0.41 | 0.41 | 76 | 1010.8 |
| 20260509004617 | 7 | 268 | 3.2 | 4.8 | 0.00 | 0.41 | 0.41 | 74 | 1010.6 |
| 20260509003617 | 7 | 281 | 3.2 | 4.8 | 0.00 | 0.41 | 0.41 | 75 | 1010.6 |
| 20260509002638 | 7 | 288 | 3.2 | 4.8 | 0.00 | 0.41 | 0.41 | 72 | 1010.4 |
| 20260509001618 | 8 | 300 | 3.2 | 3.2 | 0.00 | 0.41 | 0.41 | 69 | 1010.4 |
| 20260509000618 | 8 | 279 | 3.2 | 3.2 | 0.00 | 0.41 | 0.41 | 68 | 1010.2 |
| 20260508235618 | 9 | 284 | 1.6 | 3.2 | 0.00 | 0.41 | 0.41 | 61 | 1010.1 |
| 20260508234617 | 10 | 279 | 0.0 | 1.6 | 0.00 | 0.41 | 0.41 | 58 | 1010.0 |
| 20260508233618 | 10 | 312 | 0.0 | 1.6 | 0.00 | 0.41 | 0.41 | 57 | 1009.9 |
| 20260508232618 | 10 | 298 | 0.0 | 1.6 | 0.00 | 0.41 | 0.41 | 55 | 1009.8 |
| 20260508231618 | 10 | 304 | 1.6 | 3.2 | 0.00 | 0.41 | 0.41 | 57 | 1009.8 |
| 20260508230618 | 11 | 0.0 | 0.0 | 0.00 | 0.41 | 0.41 | 56 | 1009.8 | |
| 20260508225618 | 11 | 84 | 0.0 | 1.6 | 0.00 | 0.41 | 0.41 | 54 | 1009.8 |
| 20260508224639 | 11 | 29 | 0.0 | 1.6 | 0.00 | 0.41 | 0.41 | 55 | 1009.9 |
| 20260508223616 | 11 | 355 | 0.0 | 0.0 | 0.00 | 0.41 | 0.41 | 54 | 1009.8 |
| 20260508222615 | 11 | 16 | 1.6 | 3.2 | 0.00 | 0.41 | 0.41 | 56 | 1009.8 |
| 20260508221616 | 12 | 35 | 0.0 | 1.6 | 0.00 | 0.41 | 0.41 | 55 | 1009.7 |
| 20260508220617 | 12 | 54 | 0.0 | 1.6 | 0.00 | 0.41 | 0.41 | 53 | 1009.7 |
| 20260508215616 | 12 | 53 | 3.2 | 6.4 | 0.00 | 0.41 | 0.41 | 54 | 1009.8 |
| 20260508214616 | 12 | 14 | 3.2 | 9.7 | 0.00 | 0.41 | 0.41 | 52 | 1009.7 |
| 20260508213617 | 12 | 91 | 8.0 | 9.7 | 0.00 | 0.41 | 0.41 | 53 | 1009.7 |
| 20260508212617 | 12 | 39 | 1.6 | 4.8 | 0.00 | 0.41 | 0.41 | 54 | 1009.9 |
| 20260508211637 | 12 | 44 | 6.4 | 8.0 | 0.00 | 0.41 | 0.41 | 53 | 1009.9 |
| 20260508210618 | 12 | 79 | 4.8 | 6.4 | 0.00 | 0.41 | 0.41 | 54 | 1009.9 |
| 20260508205617 | 11 | 96 | 3.2 | 4.8 | 0.00 | 0.41 | 0.41 | 59 | 1010.0 |
| 20260508204618 | 11 | 75 | 1.6 | 3.2 | 0.00 | 0.41 | 0.41 | 56 | 1010.0 |
| 20260508203618 | 11 | 22 | 4.8 | 6.4 | 0.00 | 0.41 | 0.41 | 56 | 1010.1 |
| 20260508202639 | 12 | 80 | 4.8 | 6.4 | 0.00 | 0.41 | 0.41 | 56 | 1010.1 |
| 20260508201616 | 12 | 39 | 3.2 | 9.7 | 0.00 | 0.41 | 0.41 | 57 | 1010.3 |
| 20260508200636 | 12 | 218 | 3.2 | 6.4 | 0.00 | 0.41 | 0.41 | 50 | 1010.3 |
| 20260508195616 | 12 | 8 | 6.4 | 12.9 | 0.00 | 0.41 | 0.41 | 54 | 1010.4 |
| 20260508194616 | 11 | 94 | 6.4 | 9.7 | 0.00 | 0.41 | 0.41 | 60 | 1010.5 |
| 20260508193616 | 11 | 78 | 8.0 | 9.7 | 0.00 | 0.41 | 0.41 | 59 | 1010.6 |
| 20260508192616 | 11 | 50 | 3.2 | 6.4 | 0.00 | 0.41 | 0.41 | 61 | 1010.9 |
| 20260508191616 | 11 | 194 | 6.4 | 11.3 | 0.00 | 0.41 | 0.41 | 54 | 1010.8 |
| 20260508190617 | 12 | 246 | 6.4 | 12.9 | 0.00 | 0.41 | 0.41 | 53 | 1011.0 |
| 20260508185617 | 12 | 244 | 9.7 | 12.9 | 0.00 | 0.41 | 0.41 | 55 | 1011.0 |
| 20260508184617 | 12 | 233 | 8.0 | 11.3 | 0.00 | 0.41 | 0.41 | 56 | 1011.0 |
| 20260508183618 | 11 | 265 | 4.8 | 8.0 | 0.00 | 0.41 | 0.41 | 54 | 1011.1 |
| 20260508182617 | 11 | 355 | 4.8 | 8.0 | 0.00 | 0.41 | 0.41 | 57 | 1011.3 |
| 20260508181617 | 11 | 303 | 4.8 | 8.0 | 0.00 | 0.41 | 0.41 | 57 | 1011.4 |
| 20260508180617 | 11 | 342 | 3.2 | 6.4 | 0.00 | 0.41 | 0.41 | 57 | 1011.5 |
| 20260508175638 | 11 | 337 | 3.2 | 4.8 | 0.00 | 0.41 | 0.41 | 60 | 1011.7 |
| 20260508174618 | 10 | 238 | 6.4 | 9.7 | 0.00 | 0.41 | 0.41 | 68 | 1011.7 |
| 20260508173619 | 9 | 244 | 4.8 | 11.3 | 0.00 | 0.41 | 0.41 | 69 | 1011.9 |
| 20260508172618 | 8 | 219 | 6.4 | 11.3 | 0.00 | 0.41 | 0.41 | 71 | 1011.8 |
| 20260508171616 | 8 | 190 | 4.8 | 8.0 | 0.00 | 0.41 | 0.41 | 70 | 1012.0 |
| 20260508170618 | 8 | 271 | 4.8 | 6.4 | 0.00 | 0.41 | 0.41 | 73 | 1012.2 |
| 20260508165616 | 7 | 249 | 6.4 | 8.0 | 0.00 | 0.41 | 0.41 | 74 | 1012.2 |
| 20260508164616 | 7 | 166 | 1.6 | 3.2 | 0.00 | 0.41 | 0.41 | 80 | 1012.4 |
| 20260508163616 | 6 | 82 | 4.8 | 6.4 | 0.00 | 0.41 | 0.41 | 82 | 1012.6 |
| 20260508162617 | 7 | 101 | 6.4 | 8.0 | 0.00 | 0.41 | 0.41 | 82 | 1012.7 |
| 20260508161617 | 7 | 74 | 3.2 | 6.4 | 0.00 | 0.41 | 0.41 | 82 | 1012.5 |
| 20260508160617 | 7 | 90 | 4.8 | 6.4 | 0.00 | 0.41 | 0.41 | 82 | 1012.3 |
| 20260508155617 | 7 | 306 | 0.0 | 1.6 | 0.00 | 0.41 | 0.41 | 79 | 1012.5 |
| 20260508154618 | 7 | 248 | 3.2 | 4.8 | 0.00 | 0.41 | 0.41 | 81 | 1012.4 |
| 20260508153617 | 6 | 69 | 3.2 | 4.8 | 0.00 | 0.41 | 0.41 | 89 | 1012.3 |
| 20260508152658 | 5 | 124 | 3.2 | 4.8 | 0.00 | 0.41 | 0.41 | 91 | 1012.6 |
| 20260508151618 | 5 | 74 | 1.6 | 4.8 | 0.00 | 0.41 | 0.41 | 92 | 1012.7 |
| 20260508150618 | 5 | 53 | 4.8 | 6.4 | 0.03 | 0.41 | 0.41 | 92 | 1012.5 |
| 20260508145618 | 4 | 97 | 3.2 | 6.4 | 0.03 | 0.41 | 0.41 | 91 | 1012.6 |
| 20260508144618 | 5 | 98 | 6.4 | 9.7 | 0.03 | 0.41 | 0.41 | 89 | 1012.3 |
| 20260508143618 | 5 | 66 | 1.6 | 4.8 | 0.03 | 0.41 | 0.41 | 89 | 1012.3 |
| 20260508142638 | 3 | 24 | 0.0 | 3.2 | 0.03 | 0.41 | 0.41 | 91 | 1012.4 |
| 20260508141638 | 3 | 222 | 0.0 | 3.2 | 0.05 | 0.38 | 0.38 | 92 | 1012.0 |
| 20260508140616 | 3 | 263 | 0.0 | 1.6 | 0.10 | 0.38 | 0.38 | 93 | 1012.8 |
| 20260508135636 | 3 | 327 | 1.6 | 3.2 | 0.13 | 0.38 | 0.38 | 93 | 1012.8 |
| 20260508134616 | 3 | 305 | 1.6 | 3.2 | 0.18 | 0.38 | 0.38 | 92 | 1012.6 |
| 20260508133616 | 3 | 71 | 3.2 | 4.8 | 0.20 | 0.36 | 0.36 | 92 | 1012.3 |
| 20260508132616 | 3 | 4 | 4.8 | 8.0 | 0.28 | 0.36 | 0.36 | 92 | 1012.3 |
| 20260508131617 | 3 | 256 | 0.0 | 1.6 | 0.30 | 0.33 | 0.33 | 92 | 1012.5 |
| 20260508130616 | 3 | 72 | 1.6 | 3.2 | 0.25 | 0.28 | 0.28 | 91 | 1012.5 |
| 20260508125657 | 3 | 315 | 3.2 | 4.8 | 0.23 | 0.25 | 0.25 | 90 | 1012.4 |
| 20260508124617 | 3 | 8 | 1.6 | 6.4 | 0.18 | 0.20 | 0.20 | 89 | 1012.2 |
| 20260508123617 | 4 | 283 | 3.2 | 4.8 | 0.13 | 0.15 | 0.15 | 87 | 1012.2 |
| 20260508122618 | 5 | 340 | 3.2 | 8.0 | 0.05 | 0.08 | 0.08 | 84 | 1011.9 |
| 20260508121618 | 5 | 356 | 0.0 | 1.6 | 0.00 | 0.03 | 0.03 | 85 | 1011.6 |
| 20260508120618 | 5 | 247 | 3.2 | 4.8 | 0.00 | 0.03 | 0.03 | 84 | 1011.1 |
| 20260508115639 | 5 | 110 | 3.2 | 4.8 | 0.00 | 0.03 | 0.03 | 84 | 1010.6 |
| 20260508114618 | 5 | 0.0 | 0.0 | 0.00 | 0.03 | 0.03 | 85 | 1010.6 |